Hourly Data Report for April 21, 2004

SHERBROOKE A
QUEBEC

45°26'00.000" N
71°41'00.000" W
241.40 m
7028124
71610
YSC

Download Data

Hourly Data (April 2004)
Hourly Data Report for April 21, 2004
TIME
LST
Temp Definition
°C
Dew Point Definition
°C
Rel Hum Definition
%
Precip. Amount Definition
mm

Wind Dir Definition
10's deg

Wind Spd Definition
km/h
Visibility Definition
km
Stn Press Definition
kPa
Hmdx Definition


Wind Chill Definition


Weather Definition


00:00 -1.4 -4.1 82   12 4 15.0 99.31   -3  
01:00 -1.9 -4.3 84   7 6 15.0 99.31   -4  
02:00 -1.6 -4.3 82   9 9 15.0 99.27   -5  
03:00 -1.6 -4.6 80   8 13 15.0 99.20   -6  
04:00 -1.7 -4.9 79   8 9 15.0 99.20   -5  
05:00 -2.5 -5.4 80   7 6 15.0 99.20   -5  
06:00 0.5 -4.3 70   7 7 15.0 99.22      
07:00 3.5 -2.8 63   12 4 24.1 99.23     Mostly Cloudy
08:00 7.4 -3.0 48   15 15 24.1 99.18     Mostly Cloudy
09:00 10.7 -2.7 39   16 20 24.1 99.12     Mostly Cloudy
10:00 12.3 -2.2 36   16 30 24.1 99.05     Mostly Cloudy
11:00 12.6 -1.5 38   17 28 24.1 98.93     Mostly Cloudy
12:00 12.3 -2.1 37   16 28 24.1 98.86     Mostly Cloudy
13:00 12.5 -2.6 35   16 20 24.1 98.80     Mostly Cloudy
14:00 12.3 -1.8 37   16 24 24.1 98.71     Cloudy
15:00 13.3 -0.5 39   17 26 24.1 98.61     Mostly Cloudy
16:00 14.3 -0.1 37   15 20 24.1 98.52     Mostly Cloudy
17:00 14.3 -0.3 37   16 24 15.0 98.46      
18:00 13.1 -0.6 39   15 19 15.0 98.44      
19:00 12.3 -0.4 41   16 22 15.0 98.45      
20:00 11.4 -0.5 44   15 19 15.0 98.50      
21:00 10.6 -0.4 46   15 17 15.0 98.48      
22:00 9.6 -0.1 51   12 15 15.0 98.49      
23:00 8.2 -0.2 55   10 6 15.0 98.45      

Notes on Data Quality.

Legend

  • E = Estimated
  • M = Missing
  • NA = Not Available*
  • [empty] = Indicates an unobserved value
Date modified: